User: anonymous   Login
Location: Lafig�re
(44.4503°N, 4.0357°E)
Time: 05:42:33
(UTC+00:00)
Language:

Tiros 1 despin weight - Orbit

View from above orbital plane
View from above orbital plane
View from above satellite
View from above satellite

Ground track
Ground track

The orbit data is extracted from the following two-line orbital elements,

1   115U 60002D   21027.72239997  .00000113  00000-0  40403-4 0  9995
2   115  48.1662 275.7355 0033988 157.8007 202.4386 14.83688395246270
Epoch (UTC): 27 January 2021 17:20:15
Eccentricity: 0.0033988
inclination: 48.1662°
perigee height: 594 km
apogee height: 641 km
right ascension of ascending node: 275.7355°
argument of perigee: 157.8007°
revolutions per day: 14.83688395
mean anomaly at epoch: 202.4386°
orbit number at epoch: 24627

The dashed part of the orbit path shows where the satellite is in the earth's shadow,  

DLR